Погода в Канзас-Сити

США     39°06′30″N   94°33′10″W
темп.,
°C
ветер,
м/с
пор.,
м/с
влажн.,
%
обл.,
%
осадки,
мм/ч
давл.,
гПа
погр.,
м
19 апреля, пн
пн1901:00+7юз37670 0.0 1016111
04:00+6юз39737 0.0 1015163
07:00+5з311740 0.0 1016265
10:00+11ссз567016 0.0 1016708
13:00+9с5670100 0.0 1018994
16:00+10с4558100 0.0 10171305
19:00+7с786392 0.0 1019974
22:00+2ссв5107918 0.0 1021615
20 апреля, вт
вт2001:00+2ссв4879100 0.0 1020535
04:00+1с4998100 1.2 1021466
07:000ссв51099100 6.2 1022659
10:000с49100100 3.6 1024691
13:00+2с4789100 4.4 10241321
16:00+5ссз577499 0.6 10221262
19:00+4сз367685 0.9 1022277
22:00+1з23830 0.0 102436
21 апреля, ср
ср2101:000зюз34875 0.0 102457
04:000юз379045 0.0 1024149
07:00−1зюз39914 0.0 1024221
10:00+5зсз58715 0.0 1024850
13:00+8сз6952100 0.1 10242152
16:00+9сз5947100 0.1 10232286
19:00+8сз4853100 0.1 1022780
22:00+3с236586 0.0 102469
22 апреля, чт
чт2201:00+1св116850 0.0 102510
04:00+1зюз00655 0.0 102510
07:00+1юз226522 0.0 102633
10:00+8ююз344835 0.0 1026633
13:00+12ююз3341100 0.0 10231727
16:00+13ююз454568 0.0 10211950
19:00+9ююз6871100 0.1 1020653
22:00+7ю5885100 0.2 1022572
23 апреля, пт
пт2301:00+6ююв41092100 0.6 1020491
04:00+6ююв41295100 0.2 1018613
07:00+7ююв41295100 0.3 1017538
10:00+8ю51293100 0.3 1016572
13:00+8ююв41196100 2.1 1014630
16:00+8ююв3997100 0.8 1012538
19:00+9юв2698100 1.3 1011252
22:00+9юв2499100 0.3 1012147